星链-5027 (STARLINK-5027 )

导读

STARLINK-5027是美国SpaceX公司星链(Starlink)低轨互联网星座的一员,于2023年1月26日发射升空。星链旨在提供全球宽带接入服务,该卫星属于量产型低轨通信卫星,采用平板设计,搭载Ku/Ka波段通信载荷与氪工质霍尔推进器,具备自主避撞能力,设计寿命约5-7年,退役后会主动离轨再入大气层烧毁,服务全球卫星互联网覆盖。

基本信息
目录编号:
55370
目录名称:
STARLINK-5027
国际标识:
2023-013AR
轨道中心:
EARTH
卫星名称:
星链-5027
卫星全名:
星链-5027 (STARLINK-5027 )
卫星状态:
在轨 (已飞行1236 天)
发射日期:
2023-01-26 UTC
国别 :
美国 (US)
星等 :
--
轨道信息
数据来源 国际轨道数据 AOE轨道数据
星历时间 2026-06-13T13:05:07+0800
2天前
查看轨道信息
2026-06-13T01:00:00+0800
2天前
查看轨道信息
半长轴 6861.21km 6861.198km
偏心率 0.0001599 0.000019
轨道倾角 43.008° 43.000°
近地点辐角 268.877° 123.888°
升交点赤经 141.948° 144.785°
平近点角 91.190° 343.806°
近地点 481.975km 482.93km
远地点 484.171km 483.192km
周期 94.267分钟 94.267分钟
每日圈数 15.275722 15.275762
详细信息
固有亮度:
5
最大亮度:
2.5
卫星平台:
Starlink v1.5
覆盖范围:
全球
运营商:
太空探索技术公司
运营商所在国:
美国
制造商(研发单位):
太空探索技术公司
制造商所在国:
美国
使用方式:
暂无
卫星简介
星链(Starlink)计划是由太空探索技术公司(SpaceX)提出的一个巨型低轨卫星互联网星座项目,计划在2019年至2024年间在太空搭建由约1.2万颗卫星组成的“星链”网络,其中1584颗将部署在地球上空550千米处的近地轨道,并从2020年开始工作。该卫星仍在工作。
2D轨道图
3D轨道图
轨道高度分析图
轨道倾角分析图
轨道综合分析图
查看轨道综合分析图